This is the latest recevied weather packets stored in our database for station/object K3CHZ. If no packets are shown the sender has not sent any weather packets the latest 10 day(s).
| Time | Temp. | Humidity | Pressure | Rain* | Wind** | Luminosity | Snow |
|---|---|---|---|---|---|---|---|
| 1777911735 | 20° C | 40% | 1013.4 hPa | 0 mm | - | - | - |
| 1777911436 | 20° C | 37% | 1013.4 hPa | 0 mm | - | - | - |
| 1777911136 | 20.56° C | 38% | 1013.6 hPa | 0 mm | - | - | - |
| 1777910837 | 20.56° C | 37% | 1013.6 hPa | 0 mm | - | - | - |
| 1777910536 | 20° C | 40% | 1013.5 hPa | 0 mm | - | - | - |
| 1777910236 | 20° C | 37% | 1013.7 hPa | 0 mm | - | - | - |
| 1777909935 | 19.44° C | 41% | 1013.7 hPa | 0 mm | - | - | - |
| 1777909638 | 19.44° C | 40% | 1013.8 hPa | 0 mm | - | - | - |
| 1777909336 | 19.44° C | 38% | 1013.8 hPa | 0 mm | - | - | - |
| 1777909036 | 19.44° C | 40% | 1013.8 hPa | 0 mm | - | - | - |
| 1777908736 | 18.89° C | 37% | 1014 hPa | 0 mm | - | - | - |
| 1777908437 | 18.89° C | 42% | 1013.9 hPa | 0 mm | - | - | - |
| 1777908142 | 18.89° C | 40% | 1014 hPa | 0 mm | - | - | - |
| 1777907842 | 18.89° C | 40% | 1013.9 hPa | 0 mm | - | - | - |
| 1777907542 | 18.33° C | 39% | 1014.1 hPa | 0 mm | - | - | - |
| 1777907242 | 18.33° C | 40% | 1014.1 hPa | 0 mm | - | - | - |
| 1777906942 | 18.33° C | 40% | 1014.2 hPa | 0 mm | - | - | - |
| 1777906641 | 18.33° C | 39% | 1014.2 hPa | 0 mm | - | - | - |
| 1777906342 | 18.33° C | 39% | 1014.2 hPa | 0 mm | - | - | - |
| 1777906044 | 17.78° C | 41% | 1014.2 hPa | 0 mm | - | - | - |
| 1777905742 | 17.78° C | 41% | 1014.1 hPa | 0 mm | - | - | - |
| 1777905442 | 17.78° C | 41% | 1014.1 hPa | 0 mm | - | - | - |
| 1777905143 | 17.78° C | 44% | 1014.1 hPa | 0 mm | - | - | - |
| 1777904837 | 17.22° C | 44% | 1014 hPa | 0 mm | - | - | - |
| 1777904537 | 17.22° C | 44% | 1014.2 hPa | 0 mm | - | - | - |
* Rain latest hour (hover to see other rain measurements)
** Current wind speed in m/s (hover to see current wind gust speed)